Regional Weather Roundup
Issued by NWS Sioux Falls, SD

Home | Current Version | Previous Version | Text Only | Print | Product List | Glossary On
Versions: 1 2 3 4 5 6 7 8 9 10 11 12 13 14 15 16 17 18 19 20 21 22 23 24 25 26 27 28 29 30 31 32 33 34 35 36 37 38 39 40 41 42 43 44 45 46 47 48 49 50
000
ASUS43 KFSD 050902
RWRFSD

WEATHER ROUNDUP FOR SE SOUTH DAKOTA/SW MINNESOTA/NW IOWA
NATIONAL WEATHER SERVICE SIOUX FALLS SD
400 AM CDT SAT SEP 05 2015

NOTE: "FAIR" INDICATES FEW OR NO CLOUDS BELOW 12,000 FEET WITH NO
SIGNIFICANT WEATHER AND OR OBSTRUCTIONS TO VISIBILITY.


SDZ038>040-050-052>070-051000-
SOUTHEAST SOUTH DAKOTA

CITY           SKY/WX    TMP DP  RH WIND       PRES   REMARKS
BROOKINGS      PTCLDY    72  66  83 SE9       29.87S
CHAMBERLAIN    PTCLDY    69  68  97 E5        29.78S
HURON          PTCLDY    72  69  90 SE9       29.78S
MADISON        FAIR      72  72 100 S10       29.85F
MITCHELL       CLEAR     71  69  93 SE6       29.79F
SIOUX FALLS    PTCLDY    73  67  81 S12       29.85S
WINNER         FAIR      74  62  66 S7        29.78S
YANKTON        CLEAR     73  66  78 S14       29.80F
$$

MNZ071-072-080-081-089-090-097-098-051000-
SOUTHWEST MINNESOTA

CITY           SKY/WX    TMP DP  RH WIND       PRES   REMARKS
FAIRMONT       PTCLDY    73  66  78 S10       29.93F
JACKSON        MOCLDY    73  70  88 S12G17    29.93F
LUVERNE        CLEAR     73  68  83 S7        29.88S
MARSHALL       CLEAR     73  64  73 S14       29.86F
MONTEVIDEO     CLEAR     73  70  88 S9        29.86F
PIPESTONE      PTCLDY    73  66  78 S12       29.88S
REDWOOD FALLS  MOCLDY    74  71  91 SE9       29.87F
TRACY          CLEAR     74  69  85 S13       29.87F
WINDOM         PTCLDY    75  68  78 S6        29.91F
WORTHINGTON    PTCLDY    73  64  73 S12       29.91S
$$

IAZ001>003-012>014-020>022-031-032-NEZ013-014-SDZ071-051000-
NORTHWEST IOWA

CITY           SKY/WX    TMP DP  RH WIND       PRES   REMARKS
DENISON        PTCLDY    73  70  88 S10G20    29.92R
ESTHERVILLE    MOCLDY    72  70  93 S9        29.94R
SIOUX CITY     PTCLDY    75  68  78 SE8       29.87S
SPENCER        CLOUDY    75  68  78 SE8       29.93F THUNDER
$$

ABBREVIATIONS USED IN REMARKS
   TC - TEMPERATURE IN CELSIUS
  WCI - WIND CHILL INDEX
   HX - HEAT INDEX
  VSB - VISIBILITY




USA.gov is the U.S. government's official web portal to all federal, state and local government web resources and services.